Location: Newark
(31.0436°N, 112.2008°E)
Time: 01:58:49
(UTC+00:00)

N. Korean satellite - Pass Details

Date: 06 February 2020
Orbit: 456 x 505 km, 97.2° (Epoch: 21 February)

Event Time Altitude Azimuth Distance (km) Brightness Sun altitude
Rises 22:36:59 0° 1° (N) 2,588 10.1 -9.7°
Reaches altitude 10° 22:39:09 10° 353° (N) 1,707 9.1 -9.2°
Maximum altitude 22:42:33 37° 285° (WNW) 800 7.1 -8.5°
Drops below altitude 10° 22:45:58 10° 217° (SW) 1,709 9.1 -7.8°
Sets 22:48:09 0° 209° (SSW) 2,591 10.1 -7.3°
